Regional Weather Roundup
Issued by NWS

Home | Current Version | Previous Version | Graphics & Text | Print | Product List | Glossary On
Versions: 1 2 3 4 5 6 7 8 9 10 11 12 13 14 15 16 17 18 19 20 21 22 23 24 25 26 27 28 29 30 31 32 33 34 35 36 37 38 39 40 41 42 43 44 45 46 47 48 49 50
000
ASUS43 KBIS 182210
RWRND

NORTH DAKOTA REGIONAL WEATHER ROUNDUP
NATIONAL WEATHER SERVICE BISMARCK ND
500 PM CDT SAT APR 18 2015

NOTE: "FAIR" INDICATES FEW OR NO CLOUDS BELOW 12,000 FEET WITH NO
SIGNIFICANT WEATHER AND/OR OBSTRUCTIONS TO VISIBILITY.


NDZ001>003-009>011-017-182300-
NORTHWEST NORTH DAKOTA

CITY           SKY/WX    TMP DP  RH WIND       PRES   REMARKS
WILLISTON      CLOUDY    59  37  44 N18       29.94R
MINOT          PTSUNNY   71  26  18 S6        29.81F
MINOT AFB      MOSUNNY   72  28  19 S12G21    29.80F
$$

NDZ018>021-031>035-040>046-182300-
SOUTHWEST NORTH DAKOTA

CITY           SKY/WX    TMP DP  RH WIND       PRES   REMARKS
BISMARCK       CLOUDY    62  30  29 S9G17     29.93R
DICKINSON      CLOUDY    67  38  34 SW10      29.85F
GARRISON         N/A     72  30  21 S12       29.84F
HETTINGER ARPT LGT RAIN  51  39  63 SE13      29.93F
$$

NDZ004>008-012>016-024-026-027-054-182300-
NORTHEAST NORTH DAKOTA

CITY           SKY/WX    TMP DP  RH WIND       PRES   REMARKS
GRAND FORKS    CLOUDY    69  25  19 SE7       29.92F
GRND FRKS AFB  MOSUNNY   68  27  21 S9        29.92F
DEVILS LAKE    PTSUNNY   66  28  24 S15       29.90F
$$

NDZ022-023-025-028>030-036>039-047>053-182300-
SOUTHEAST NORTH DAKOTA

CITY           SKY/WX    TMP DP  RH WIND       PRES   REMARKS
FARGO          PTSUNNY   73  28  18 E10       29.89F
JAMESTOWN      CLOUDY    69  24  18 S12       29.88F
$$



USA.gov is the U.S. government's official web portal to all federal, state and local government web resources and services.